Theta_e
331 325 324 322 322 329 333 333 335 336 336 333 330 330 329 331 332 331 332 332 328 339 337 340 340 341 340 333 338 339 334 336 340 341 340 339 340 339 337 339 338 337 336
323 323 321 323 330 330 329 337 339 339 339 336 333 333 333 330 327 331 328 331 333 331 340 337 334 340 339 330 330 333 337 336 336 339 338 337 339 340 339 338 337 335 333
321 321 323 326 331 329 327 334 335 335 339 337 333 333 334 335 332 326 327 329 335 330 332 337 338 339 337 331 329 328 333 335 334 336 336 334 335 339 339 341 341 337 333
321 322 324 328 332 333 332 329 331 330 333 340 338 332 332 333 334 334 332 332 333 336 329 333 336 331 330 330 330 328 331 334 339 341 337 331 339 335 334 335 336 333 333
323 323 326 331 332 333 328 325 327 328 328 334 339 334 336 338 334 336 335 334 337 329 327 325 328 329 332 330 330 331 335 336 334 338 338 333 330 337 334 331 331 328 326
326 327 328 331 332 331 325 324 327 327 327 327 335 340 336 337 338 335 339 335 333 336 327 323 325 335 338 340 342 339 334 338 338 331 334 329 335 328 333 337 338 335 335
332 334 331 329 330 329 325 324 328 333 330 327 327 338 338 337 337 333 338 338 332 333 330 323 333 341 342 343 343 343 341 342 339 333 329 325 323 329 341 335 335 336 336
335 335 334 330 329 329 325 325 323 324 328 331 329 330 339 340 334 333 336 339 333 333 330 325 340 342 341 343 344 341 341 341 339 337 323 338 341 327 325 324 323 322 322
336 335 334 330 328 328 325 324 323 323 325 334 337 331 338 337 337 338 339 338 339 330 325 333 341 339 341 342 342 342 343 343 342 325 320 335 338 334 332 333 330 336 341
336 334 331 328 326 325 324 322 321 322 325 331 336 340 333 339 335 334 336 330 330 326 323 327 340 339 343 344 342 342 344 344 343 336 333 335 334 335 336 333 335 340 337
336 332 328 326 325 324 322 322 322 323 327 341 340 338 339 336 338 338 331 330 328 327 328 324 330 340 343 343 343 341 342 343 340 336 334 333 333 333 332 335 340 338 336
336 330 326 325 323 324 327 333 324 331 333 344 346 344 340 336 336 334 332 330 329 328 329 335 339 341 342 343 343 345 343 342 342 343 336 335 335 334 334 330 332 332 334
340 329 324 323 322 339 342 339 341 341 343 343 347 345 344 341 335 336 333 328 329 328 328 330 334 337 340 342 342 343 344 343 342 342 342 330 334 336 336 337 337 336 335
337 335 325 329 339 342 342 342 344 346 347 345 347 347 345 345 340 338 336 335 329 328 328 328 329 335 339 339 339 340 340 343 343 344 343 332 328 327 332 335 337 339 339
342 338 336 342 342 343 344 346 347 346 347 346 347 347 346 344 346 342 337 337 336 333 331 330 329 328 328 330 333 336 341 343 343 342 343 339 330 327 326 326 328 332 336
342 340 340 340 341 341 343 344 346 347 347 347 348 346 347 344 345 343 337 337 338 338 337 334 333 333 337 334 331 331 342 342 342 343 343 343 338 330 329 328 327 327 327
340 339 340 340 340 342 344 345 346 346 347 348 348 348 347 343 345 346 340 342 343 343 341 341 338 333 342 343 342 341 342 343 342 342 343 344 341 340 336 332 330 329 330
339 339 339 340 342 342 344 345 346 346 346 347 348 348 346 344 347 344 344 344 344 343 343 343 344 341 340 341 342 344 343 344 343 342 344 343 341 343 342 337 336 336 333
339 338 339 340 342 342 343 345 345 346 347 348 349 348 346 343 345 345 345 344 345 343 343 344 344 344 343 342 343 343 343 344 343 343 343 344 343 344 344 341 342 339 338
339 339 339 339 341 343 345 344 345 346 347 348 347 348 349 348 344 345 348 346 346 346 344 344 343 344 345 343 344 344 343 343 343 343 343 344 344 344 345 341 342 342 340
339 339 336 339 341 343 343 339 344 348 347 346 348 348 350 349 347 343 344 348 346 344 343 346 345 345 346 345 344 345 344 344 344 345 345 344 343 344 343 342 340 339 338
340 340 340 340 343 344 345 345 345 347 349 348 349 348 350 350 347 345 345 349 346 344 345 346 345 345 345 344 345 344 345 345 344 344 345 345 344 344 344 342 341 339 340
340 342 340 342 343 345 346 346 345 348 348 348 344 346 347 347 345 344 345 347 347 344 345 344 342 346 343 346 346 346 346 345 345 344 344 344 344 343 343 343 342 342 341
341 342 341 342 343 346 346 347 345 344 345 345 346 346 345 347 345 346 344 345 349 345 345 345 344 344 344 345 347 348 348 347 347 345 344 343 342 342 342 341 341 341 342
341 343 342 342 343 346 347 348 347 345 346 350 348 347 345 346 346 345 343 343 344 346 346 344 344 342 345 344 346 347 347 347 344 345 345 346 343 343 343 340 342 342 343
342 343 342 342 343 345 347 348 348 347 348 349 349 348 345 344 345 344 344 345 344 344 348 346 342 342 343 344 345 347 346 346 345 345 345 344 346 345 346 346 343 343 345
Wind_Speed
19 19 18 16 16 17 16 17 16 15 14 14 15 15 15 15 15 14 15 15 14 17 16 17 18 18 19 21 22 22 22 22 23 23 23 22 22 22 22 23 23 23 22
23 21 18 18 17 16 16 17 17 16 15 14 13 14 13 14 14 14 14 14 14 16 18 18 19 19 21 21 22 22 21 20 20 20 21 21 20 20 20 22 22 22 22
25 22 19 19 17 16 16 16 17 16 16 15 13 13 14 13 14 14 14 14 14 15 17 19 19 19 20 21 20 19 18 17 17 18 18 17 18 18 18 19 20 19 18
24 21 19 19 17 16 15 14 15 15 14 15 13 12 12 12 14 15 15 15 15 15 15 18 19 20 20 20 20 19 17 14 15 14 16 15 16 14 16 17 18 17 17
23 22 20 18 17 15 14 12 13 13 13 12 13 11 9 11 13 15 15 14 15 16 16 16 18 19 20 20 20 20 19 15 13 11 10 12 14 13 14 14 14 14 14
23 21 20 18 16 14 12 12 13 12 11 10 11 11 9 10 14 17 16 15 16 17 16 17 20 21 21 20 16 14 13 13 12 9 8 8 11 12 13 13 14 14 13
24 20 19 17 15 13 11 10 11 11 11 10 9 11 10 13 17 18 18 16 16 17 17 19 21 21 17 15 14 13 12 11 10 9 9 9 11 12 12 11 12 12 11
21 19 18 16 14 12 11 10 9 8 10 9 9 10 12 13 16 17 17 15 16 17 16 20 21 19 15 11 15 14 13 11 9 7 10 9 9 10 11 10 10 9 9
20 18 17 15 14 11 10 9 8 7 6 9 8 9 11 12 15 17 16 15 15 15 17 22 22 19 15 12 11 11 11 10 8 8 9 7 7 9 9 10 11 11 9
19 17 16 15 13 11 9 8 6 6 6 7 7 7 9 11 12 14 14 14 14 16 18 22 21 16 14 12 9 9 9 7 5 5 6 6 7 8 9 9 11 11 10
20 17 15 14 11 10 8 6 6 5 7 9 7 8 7 9 13 13 13 14 16 15 18 20 20 17 14 11 8 5 5 7 6 5 6 7 6 7 8 9 10 10 9
20 18 15 13 11 9 8 7 7 6 7 6 6 8 8 8 10 12 13 14 17 17 17 18 19 17 14 12 10 5 3 5 3 1 0 5 6 5 6 7 8 7 8
16 17 15 12 12 10 7 8 10 8 7 7 5 6 8 9 11 12 13 14 17 17 16 17 18 19 15 12 12 7 3 4 5 4 3 4 4 5 7 6 7 8 8
19 16 16 14 13 11 10 9 9 8 6 7 6 4 5 8 10 12 13 13 15 17 18 17 16 17 17 15 14 9 5 5 6 7 7 5 5 5 5 6 7 7 7
16 16 18 16 14 11 9 9 8 6 4 4 5 6 5 5 9 12 12 13 14 14 14 15 16 17 17 16 15 13 9 8 7 8 8 8 7 6 5 6 7 8 8
18 19 17 15 13 10 9 9 6 6 4 4 4 3 3 5 8 11 11 11 13 14 13 14 14 13 15 16 16 15 12 11 8 5 10 12 11 9 7 7 8 8 9
21 20 21 16 13 13 13 10 7 7 6 5 3 4 3 5 6 10 12 12 11 10 13 12 14 15 15 13 14 13 13 12 11 11 12 15 13 11 10 10 10 10 10
21 23 20 18 15 16 15 13 8 8 8 5 6 4 3 6 6 7 12 14 11 12 11 12 12 13 16 16 14 13 13 13 13 12 12 14 15 14 11 12 11 10 11
24 23 23 20 14 13 12 14 12 9 9 8 7 6 4 5 7 9 9 12 14 13 13 14 12 12 15 14 15 16 17 17 15 15 15 16 18 18 14 13 13 14 13
26 25 25 24 19 14 14 16 16 11 11 9 8 7 8 4 8 10 11 12 12 12 13 14 13 14 13 14 15 16 18 18 20 19 17 18 22 22 19 16 17 16 15
29 28 27 28 23 19 14 16 18 13 12 11 12 11 12 9 7 11 12 12 11 9 9 11 11 14 15 12 14 16 18 20 21 22 20 18 17 20 22 22 19 20 20
30 30 29 27 23 22 18 11 13 15 15 12 12 12 14 12 9 9 11 11 12 11 9 9 12 12 13 12 13 13 9 11 16 19 22 24 24 25 24 21 19 20 22
34 31 31 26 24 24 21 15 17 17 16 14 12 12 10 11 12 11 12 12 12 11 11 9 11 12 9 9 9 7 3 3 7 6 9 13 14 16 17 18 22 23 22
38 33 29 27 25 23 23 20 16 15 17 13 13 13 11 14 12 13 13 14 12 11 13 10 9 12 11 7 6 6 8 9 4 5 7 6 5 6 8 11 13 14 14
38 35 30 28 27 25 24 23 18 19 15 13 14 16 13 16 15 13 12 13 12 12 13 11 12 13 12 10 7 6 8 6 7 10 12 6 6 5 3 5 5 5 7
37 35 32 31 30 27 26 26 22 21 17 14 14 14 14 18 16 16 12 13 14 14 13 12 11 12 11 9 10 9 6 6 5 5 11 11 9 7 6 6 8 8 8
Wind_Direction
160 145 143 138 133 128 123 118 113 113 116 127 133 135 136 135 132 127 119 117 114 107 112 109 109 106 109 111 114 114 112 114 111 112 113 114 115 117 121 116 116 115 114
147 144 142 134 134 129 124 118 113 111 113 118 131 139 144 144 149 142 126 115 109 112 109 105 114 114 112 111 111 113 115 113 113 112 113 116 115 117 119 118 116 115 115
149 147 144 139 138 131 123 119 113 108 110 115 130 138 142 148 151 150 139 128 118 112 116 117 116 117 117 115 115 114 110 109 110 116 111 117 120 121 119 118 116 117 119
155 152 151 144 142 135 128 120 116 113 107 107 118 122 137 144 154 148 141 136 127 123 128 124 123 125 126 123 125 121 116 112 109 120 126 119 117 121 127 125 121 121 120
158 154 154 148 146 140 130 124 119 114 111 107 107 115 123 143 155 153 146 139 134 131 133 133 132 130 126 124 126 122 117 112 107 122 124 121 128 130 123 120 119 123 126
157 154 154 153 147 144 133 131 127 122 115 110 108 112 117 145 155 153 145 141 138 134 135 139 137 132 131 126 122 124 119 106 108 117 137 143 138 130 133 138 131 131 124
159 159 159 157 150 148 139 130 125 120 116 114 110 106 107 118 143 152 148 143 140 138 139 143 142 138 134 131 129 119 113 107 96 100 129 129 143 137 138 136 133 132 138
165 163 163 161 158 156 145 136 116 111 116 113 115 111 114 117 135 143 143 146 143 143 148 150 146 136 130 123 134 122 117 110 97 110 137 132 136 140 151 148 145 148 152
172 169 170 164 163 160 153 143 126 116 108 115 118 120 122 126 133 140 147 147 145 147 152 156 149 142 138 129 129 136 126 114 91 113 140 154 155 145 145 147 145 146 148
178 178 175 168 167 158 154 142 127 126 115 115 122 127 133 135 138 141 148 149 149 147 152 160 155 151 146 140 136 133 145 139 114 122 134 153 160 160 154 155 161 165 164
183 182 178 169 164 160 154 146 137 140 125 109 128 145 150 152 156 156 158 155 150 149 154 160 165 164 161 154 154 148 147 150 128 128 164 166 175 177 175 173 172 164 168
189 184 181 169 167 166 157 152 138 143 139 136 113 123 155 164 169 165 167 164 160 157 157 166 168 174 175 169 162 165 186 189 178 181 243 192 190 201 197 185 182 178 182
201 189 183 176 180 162 154 146 138 137 131 135 140 141 156 174 176 182 179 180 175 173 169 169 178 184 190 188 183 181 194 182 217 242 269 231 210 206 214 215 207 204 199
185 193 185 174 165 146 131 138 155 161 144 130 138 145 157 182 189 184 192 192 191 191 188 184 184 189 200 204 206 206 212 241 272 280 250 239 223 214 227 231 234 226 222
193 183 182 174 173 163 151 151 154 163 154 145 146 156 165 174 194 201 196 201 200 200 200 199 201 206 210 211 217 223 231 240 244 262 242 252 248 225 229 230 236 240 233
208 192 185 190 194 196 188 180 184 190 186 210 219 176 175 179 188 193 195 198 199 204 206 211 211 210 209 216 225 228 232 239 250 262 262 247 247 236 227 235 238 242 240
204 201 203 205 211 209 201 202 209 197 210 218 234 225 195 191 189 197 197 188 178 190 206 212 216 214 210 220 220 236 245 247 259 264 273 248 240 235 236 238 238 244 247
207 203 209 207 206 206 210 211 220 221 227 238 227 206 224 198 195 206 201 196 197 202 200 205 213 220 224 238 227 238 246 256 251 262 255 235 245 250 246 246 244 243 253
209 210 212 214 217 224 228 227 227 233 231 223 229 227 221 212 208 209 203 200 206 212 221 220 219 226 232 232 241 249 253 260 259 259 249 246 246 245 243 246 255 252 243
212 211 215 218 219 223 231 232 222 233 206 217 220 222 215 214 217 212 209 206 218 221 224 226 231 234 241 249 255 258 260 266 261 260 253 260 250 248 249 257 261 255 253
216 212 212 210 214 216 219 208 206 210 217 213 224 228 224 222 225 216 216 218 225 223 228 233 237 238 238 248 252 264 269 263 260 262 257 257 246 249 258 275 259 260 259
211 211 209 207 209 207 203 198 206 208 214 225 234 233 233 223 222 216 216 222 234 220 221 238 239 244 249 250 255 270 281 279 264 262 262 264 266 265 265 263 256 259 263
210 209 203 200 199 203 205 205 210 214 219 231 234 240 256 217 213 210 213 228 229 239 232 244 242 238 247 249 251 242 274 323 323 307 278 273 273 267 264 255 250 257 259
212 209 204 203 203 205 204 199 200 204 217 223 243 245 242 229 228 224 213 215 228 240 229 234 237 229 228 231 239 262 285 297 344 337 345 334 297 285 271 255 256 262 264
209 207 208 208 208 206 206 203 209 210 228 242 237 245 244 227 227 227 217 213 217 219 226 230 234 225 221 223 241 270 303 302 302 290 320 326 318 307 298 247 250 241 239
207 208 210 211 213 209 207 207 215 218 227 232 229 238 242 234 225 226 217 222 213 212 221 229 231 221 215 230 248 257 284 289 314 318 319 321 301 305 304 269 265 260 255